Regional Weather Roundup
Issued by NWS

Home | Current Version | Previous Version | Graphics & Text | Print | Product List | Glossary On
Versions: 1 2 3 4 5 6 7 8 9 10 11 12 13 14 15 16 17 18 19 20 21 22 23 24 25 26 27 28 29 30 31 32 33 34 35 36 37 38 39 40 41 42 43 44 45 46 47 48 49 50
000
ASUS45 KABQ 040701
RWRNM
NEW MEXICO REGIONAL WEATHER ROUNDUP
NATIONAL WEATHER SERVICE ALBUQUERQUE NM
100 AM MDT SAT JUL 04 2015

NOTE: "FAIR" MEANS FEW OR NO CLOUDS BELOW 12,000 FEET AGL WITH NO
       SIGNIFICANT WEATHER OR OBSTRUCTIONS TO VISION.

      THIS PRODUCT IS RELEASED AS TWO VERSIONS.  ONE VERSION NEAR
      THE TOP OF THE HOUR CONTAINING PRELIMINARY DATA FROM ALBUQUERQUE
      AND OTHER STATIONS.  A FINAL VERSION WITH ADDITIONAL DATA IS
      ISSUED ABOUT 10 MINUTES AFTER THE HOUR.

NMZ501-503-504-510>518-040800-
NORTHWEST PLATEAU/NORTHCENTRAL MOUNTAINS

CITY           SKY/WX    TMP DP  RH WIND       PRES   REMARKS
FARMINGTON     CLEAR     66  55  67 NE3       30.11R
SANTA FE       CLOUDY    68  53  58 SE13      30.22R
TAOS           MOCLDY    61  45  55 CALM      30.28S

$$
NMZ402-403-502-505>509-040800-
WESTCENTRAL MOUNTAINS/SOUTHWEST MOUNTAINS

CITY           SKY/WX    TMP DP  RH WIND       PRES   REMARKS
GALLUP         CLOUDY    64  51  62 S3        30.20F
GRANTS         CLOUDY    66  57  73 CALM      30.24R
SILVER CITY      N/A     68  59  73 E8        30.18S

$$
NMZ407-409-411-412-040800-
SOUTHERN DESERTS

CITY           SKY/WX    TMP DP  RH WIND       PRES   REMARKS
LORDSBURG      PTSUNNY   73  57  56 SE20      30.06R
DEMING         LGT RAIN  69  67  93 W7        30.08F
HOLLOMAN AFB   PTCLDY    70  64  81 SW2       30.04S
ALAMOGORDO     PTCLDY    70  64  83 N6        30.07R
T OR C         CLOUDY    75  58  55 SW9       30.11R

$$
NMZ519>523-040800-
CENTRAL VALLEYS/CENTRAL HIGHLANDS

CITY           SKY/WX    TMP DP  RH WIND       PRES   REMARKS
ALBUQUERQUE    CLOUDY    75  53  46 CALM      30.14S
DOUBLE EAGLE   CLOUDY    66  56  71 SW6       30.18R
CLINES CORNERS CLOUDY    60  55  83 SE5       30.27R
BELEN          FAIR      73  56  54 SE5       30.12S
SOCORRO        NOT AVBL

$$
NMZ524>526-539-540-040800-
SOUTHCENTRAL MOUNTAINS

CITY           SKY/WX    TMP DP  RH WIND       PRES   REMARKS
RUIDOSO        NOT AVBL

$$
NMZ527>531-040800-
NORTHEAST HIGHLANDS/NORTHEAST PLAINS

CITY           SKY/WX    TMP DP  RH WIND       PRES   REMARKS
LAS VEGAS      PTCLDY    57  54  89 S3        30.28S
RATON          PTCLDY    59  54  83 NW5       30.23S
CLAYTON        MOCLDY    64  61  90 SW12      30.15F

$$
NMZ532>537-040800-
EASTCENTRAL PLAINS

CITY           SKY/WX    TMP DP  RH WIND       PRES   REMARKS
TUCUMCARI      MOCLDY    67  57  70 SE13      30.12F
CANNON AFB     TSTM      62  59  90 E16G22    30.17S FOG
CLOVIS AIRPORT CLOUDY    61  55  82 E18G28      N/A

$$
NMZ028-029-538-040800-
SOUTHEAST PLAINS

CITY           SKY/WX    TMP DP  RH WIND       PRES   REMARKS
ROSWELL        CLEAR     70  62  76 SE3       30.06S
ARTESIA        PTCLDY    72  63  73 S5        30.06F
CARLSBAD       MOCLDY    74  65  73 CALM      30.03S
HOBBS          PTCLDY    70  59  68 CALM      30.09S


$$


USA.gov is the U.S. government's official web portal to all federal, state and local government web resources and services.